Greenville, ME

9:43 AM EDT on October 21, 2019 (GMT -0400)
Greenville

Weather History for KGNR - August, 2019

Change the Weather History Date:

Friday, August 16, 2019

  Actual Average (WUND) Record (WUND)
Temperature  
Mean Temperature 63 °F -  
Max Temperature 70 °F - - (-1)
Min Temperature 57 °F - - (-1)
Degree Days  
Heating Degree Days 2    
Growing Degree Days 13 (Base 50)    
Moisture  
Dew Point 58 °F    
Average Humidity 88    
Maximum Humidity 100    
Minimum Humidity 69    
Precipitation  
Precipitation 0.74 in - - ()
Sea Level Pressure  
Sea Level Pressure 30.07 in    
Wind  
Wind Speed 5 mph (SE)    
Max Wind Speed 10 mph    
Max Gust Speed -    
Averages and records for this station are not official NWS values.
T = Trace of Precipitation, MM = Missing Value Source: NWS Daily Summary

Daily Weather History Graph

Daily Weather History Graph

Search for Another Location

Airport or City:

Astronomy

Aug. 16, 2019 Rise Set
Actual Time 5:39 AM EDT 7:44 PM EDT
Civil Twilight 5:07 AM EDT 8:16 PM EDT
Nautical Twilight 4:27 AM EDT 8:56 PM EDT
Astronomical Twilight 3:43 AM EDT 9:39 PM EDT
Moon 8:40 PM EDT (8/16) 6:28 AM EDT (8/16)
Length of Visible Light 15h 08m
Length of Day
14h 04m
Full, 99% of the Moon is Illuminated
Aug 16
Full
Aug 23
Last Quarter
Aug 30
New
Sep 5
First Quarter
Sep 14
Full

Hourly Weather History & Observations

Time (EDT) Temp. Dew Point Humidity Pressure Visibility Wind Dir Wind Speed Gust Speed Precip Events Conditions
12:56 AM 60.1 °F 50.0 °F 69% 30.08 in - ESE 3.5 mph - N/A   Unknown
1:56 AM 59.0 °F 51.1 °F 75% 30.07 in - SE 3.5 mph - N/A   Unknown
2:56 AM 59.0 °F 52.0 °F 78% 30.06 in - Calm Calm - N/A   Unknown
3:56 AM 59.0 °F 53.1 °F 81% 30.05 in - SE 5.8 mph - N/A   Unknown
4:56 AM 57.9 °F 53.1 °F 84% 30.04 in - SE 8.1 mph - N/A   Unknown
5:56 AM 57.9 °F 53.1 °F 84% 30.05 in - SE 10.4 mph - N/A   Unknown
6:56 AM 57.0 °F 55.0 °F 93% 30.10 in - Calm Calm - 0.02 in   Unknown
7:56 AM 57.0 °F 55.9 °F 96% 30.11 in - ESE 5.8 mph - 0.33 in   Unknown
8:56 AM 57.0 °F 55.9 °F 96% 30.08 in - SE 10.4 mph - 0.32 in   Unknown
9:56 AM 57.0 °F 57.0 °F 100% 30.09 in - SE 10.4 mph - 0.03 in   Unknown
10:56 AM 57.0 °F 57.0 °F 100% 30.10 in - South 3.5 mph - 0.03 in   Unknown
11:56 AM 57.9 °F 57.0 °F 97% 30.09 in - SE 8.1 mph - N/A   Unknown
12:56 PM 59.0 °F 59.0 °F 100% 30.08 in - SE 4.6 mph - N/A   Unknown
1:56 PM 62.1 °F 61.0 °F 96% 30.07 in - ESE 6.9 mph - 0.01 in   Unknown
2:56 PM 66.0 °F 63.0 °F 90% 30.06 in - SE 5.8 mph - N/A   Unknown
3:56 PM 68.0 °F 63.0 °F 84% 30.06 in - South 5.8 mph - N/A   Unknown
4:56 PM 68.0 °F 62.1 °F 81% 30.05 in - Variable 4.6 mph - N/A   Unknown
5:56 PM 69.1 °F 62.1 °F 78% 30.04 in - Variable 3.5 mph - N/A   Unknown
6:56 PM 66.9 °F 61.0 °F 81% 30.04 in - Variable 3.5 mph - N/A   Unknown
7:56 PM 64.9 °F 61.0 °F 87% 30.06 in - Variable 3.5 mph - N/A   Unknown
8:56 PM 63.0 °F 61.0 °F 93% 30.08 in - SSE 5.8 mph - N/A   Unknown
9:56 PM 62.1 °F 60.1 °F 93% 30.09 in - Variable 5.8 mph - N/A   Unknown
10:56 PM 61.0 °F 59.0 °F 93% 30.09 in - ESE 5.8 mph - N/A   Unknown
11:56 PM 60.1 °F 57.9 °F 93% 30.09 in - SE 6.9 mph - N/A   Unknown